Location: Unspecified
(32.7310°N, 0.0000°E)
Time: 19:43:28
(UTC+00:00)

Tiangong 2 - Visible Passes

Search period start: 22 May 2019 00:00
Search period end: 01 June 2019 00:00
Orbit: 379 x 387 km, 42.8° (Epoch: 22 May)

Date Brightness Start Highest point End Pass type
(mag) Time Alt. Az. Time Alt. Az. Time Alt. Az.
22 May 3.9 20:33:30 10° WNW 20:35:42 17° NNW 20:37:54 10° NNE visible
23 May 3.5 19:32:51 10° WNW 19:35:28 24° NNW 19:38:05 10° NE visible
23 May 4.1 21:11:19 10° NNW 21:12:54 13° N 21:14:11 11° NNE visible
24 May 4.0 20:10:46 10° NW 20:12:35 14° N 20:14:23 10° NNE visible
24 May 4.3 21:48:10 10° NNW 21:49:05 13° NNW 21:49:05 13° NNW visible
25 May 4.0 20:48:11 10° NNW 20:49:48 13° N 20:51:27 10° NE visible
26 May 4.0 19:47:53 10° NNW 19:49:28 13° N 19:51:03 10° NNE visible
26 May 3.6 21:24:36 10° NNW 21:26:27 19° N 21:26:27 19° N visible
27 May 3.8 20:24:44 10° NNW 20:26:41 15° N 20:28:37 10° NE visible
27 May 4.5 22:00:51 10° NW 22:01:09 12° NW 22:01:09 12° NW visible
28 May 3.8 19:24:42 10° NNW 19:26:21 13° N 19:27:58 10° NE visible
28 May 2.8 21:00:58 10° NW 21:03:41 27° NNE 21:03:41 27° NNE visible
29 May 3.3 20:01:08 10° NNW 20:03:29 19° NNE 20:05:50 10° ENE visible
29 May 3.8 21:37:21 10° WNW 21:38:23 19° WNW 21:38:23 19° WNW visible
30 May 1.7 20:37:22 10° NW 20:40:23 45° NNE 20:40:56 40° ENE visible
31 May 2.7 19:37:28 10° NW 19:40:12 27° NNE 19:42:56 10° E visible
31 May 3.0 21:14:00 10° WNW 21:15:40 26° W 21:15:40 26° W visible
